Regional Weather Roundup
Issued by NWS

Home | Current Version | Previous Version | Text Only | Print | Product List | Glossary On
Versions: 1 2 3 4 5 6 7 8 9 10 11 12 13 14 15 16 17 18 19 20 21 22 23 24 25 26 27 28 29 30 31 32 33 34 35 36 37 38 39 40 41 42 43 44 45 46 47 48 49 50
000
ASUS43 KBIS 261301
RWRND

NORTH DAKOTA REGIONAL WEATHER ROUNDUP
NATIONAL WEATHER SERVICE BISMARCK ND
800 AM CDT TUE MAY 26 2015

NOTE: "FAIR" INDICATES FEW OR NO CLOUDS BELOW 12,000 FEET WITH NO
SIGNIFICANT WEATHER AND/OR OBSTRUCTIONS TO VISIBILITY.


NDZ001>003-009>011-017-261400-
NORTHWEST NORTH DAKOTA

CITY           SKY/WX    TMP DP  RH WIND       PRES   REMARKS
WILLISTON      SUNNY     53  49  86 CALM      29.94R
MINOT          SUNNY     62  48  60 W16       29.88R
MINOT AFB      MOSUNNY   62  54  74 W9        29.87R
$$

NDZ018>021-031>035-040>046-261400-
SOUTHWEST NORTH DAKOTA

CITY           SKY/WX    TMP DP  RH WIND       PRES   REMARKS
BISMARCK       SUNNY     56  49  77 W12       29.94R
DICKINSON      SUNNY     50  48  93 CALM      29.95R
GARRISON         N/A     59  49  69 W7        29.92R
HETTINGER ARPT MOSUNNY   48  47  96 NW5       29.97F
$$

NDZ004>008-012>016-024-026-027-054-261400-
NORTHEAST NORTH DAKOTA

CITY           SKY/WX    TMP DP  RH WIND       PRES   REMARKS
GRAND FORKS    MOSUNNY   59  53  80 SW9       29.82R
GRND FRKS AFB  SUNNY     60  53  77 SW9       29.81F
DEVILS LAKE    MOSUNNY   63  48  59 W12       29.83S
$$

NDZ022-023-025-028>030-036>039-047>053-261400-
SOUTHEAST NORTH DAKOTA

CITY           SKY/WX    TMP DP  RH WIND       PRES   REMARKS
FARGO          MOSUNNY   56  51  84 SE7       29.85F
JAMESTOWN      SUNNY     58  53  84 W7        29.86F
$$




USA.gov is the U.S. government's official web portal to all federal, state and local government web resources and services.